Mc Donough, Georgia, United States
Lat: 33.45N, Lon: 84.15W
Wx Zone: GAZ057
Local Info
Past Weather Observations for Today

NOTE: This archive is for the closest National Weather Service station to Mc Donough. Information may differ from the station used for current weather conditions.

Click here for Long-term Archive

Time Weather Temperature Dewpoint Humidity Pressure Winds Precip Visibility
22:52
Mostly Cloudy
73°F / 23°C 64°F / 18°C 74% 30.04 in
(1017 mb)
SSW 4.6 mph
(SSW 7 kph)
- 10SM
21:52
Mostly Cloudy
75°F / 24°C 64°F / 18°C 69% 30.04 in
(1017 mb)
SSW 6.9 mph
(SSW 11 kph)
- 10SM
20:52
Mostly Cloudy
79°F / 26°C 64°F / 18°C 61% 30.01 in
(1016 mb)
SSW 12.7 mph
(SSW 20 kph)
- 10SM
19:52
Mostly Cloudy
81°F / 27°C 63°F / 17°C 54% 30.01 in
(1016 mb)
SSW 10.4 mph
(SSW 17 kph)
- 10SM
18:52
Partly Cloudy
82°F / 28°C 64°F / 18°C 55% 29.98 in
(1015 mb)
SSW 6.9 mph
(SSW 11 kph)
- 10SM
17:52
Partly Cloudy
84°F / 29°C 66°F / 19°C 55% 29.95 in
(1014 mb)
SSW 9.2 mph
(SSW 15 kph)
- 10SM
16:52
Partly Cloudy
86°F / 30°C 64°F / 18°C 49% 29.98 in
(1015 mb)
SSW 9.2 mph
(SSW 15 kph)
- 10SM
15:52
Mostly Cloudy
84°F / 29°C 64°F / 18°C 51% 29.98 in
(1015 mb)
SSW 10.4 mph
(SSW 17 kph)
- 10SM
14:52
Partly Cloudy
86°F / 30°C 64°F / 18°C 49% 29.98 in
(1015 mb)
SSW 9.2 mph
(SSW 15 kph)
- 10SM
13:52
Partly Cloudy
84°F / 29°C 66°F / 19°C 55% 29.98 in
(1015 mb)
W 11.5 mph
(W 19 kph)
- 10SM
12:52
Mostly Cloudy
82°F / 28°C 68°F / 20°C 62% 30.01 in
(1016 mb)
W 12.7 mph
(W 20 kph)
0.00 in
(0.00 mm)
10SM
11:52
Mostly Cloudy
Light Rain
73°F / 23°C 66°F / 19°C 78% 30.04 in
(1017 mb)
WNW 11.5 mph
(WNW 19 kph)
0.07 in
(1.78 mm)
9SM
11:42
Overcast
Thunder Storms
73°F / 23°C 64°F / 18°C 74% 30.06 in
(1018 mb)
NW 12.7 mph
(NW 20 kph)
0.02 in
(0.51 mm)
4SM
11:36
Overcast
Thunder Storms
72°F / 22°C 63°F / 17°C 73% 30.06 in
(1018 mb)
NNW 12.7 mph
(NNW 20 kph)
0.02 in
(0.51 mm)
5SM
11:31
Overcast
Thunder Storms
73°F / 23°C 63°F / 17°C 69% 30.06 in
(1018 mb)
NNW 16.1 mph
(NNW 26 kph)
0.00 in
(0.00 mm)
3SM
11:26
Overcast
Thunder Storms
79°F / 26°C 66°F / 19°C 65% 30.06 in
(1018 mb)
NW 25.3 mph
(NW 41 kph)
0.00 in
(0.00 mm)
10SM
11:12
Overcast
Thunder Storms
81°F / 27°C 72°F / 22°C 74% 30.04 in
(1017 mb)
SSW 10.4 mph
(SSW 17 kph)
0.00 in
(0.00 mm)
10SM
10:52
Overcast
81°F / 27°C 72°F / 22°C 74% 30.04 in
(1017 mb)
W 6.9 mph
(W 11 kph)
- 10SM
09:52
Mostly Cloudy
81°F / 27°C 70°F / 21°C 70% 30.04 in
(1017 mb)
SW 9.2 mph
(SW 15 kph)
- 10SM
08:52
Partly Cloudy
79°F / 26°C 70°F / 21°C 74% 30.04 in
(1017 mb)
W 8.1 mph
(W 13 kph)
- 9SM
07:52
Mostly Cloudy
77°F / 25°C 70°F / 21°C 79% 30.04 in
(1017 mb)
SSW 6.9 mph
(SSW 11 kph)
- 9SM
07:19
Mostly Cloudy
75°F / 24°C 70°F / 21°C 83% 30.01 in
(1016 mb)
SSW 6.9 mph
(SSW 11 kph)
- 7SM
06:52
Mostly Cloudy
73°F / 23°C 70°F / 21°C 89% 30.01 in
(1016 mb)
SW 5.8 mph
(SW 9 kph)
- 8SM
05:52
Mostly Cloudy
72°F / 22°C 68°F / 20°C 88% 30.01 in
(1016 mb)
SW 5.8 mph
(SW 9 kph)
- 9SM
04:52
Partly Cloudy
72°F / 22°C 66°F / 19°C 83% 30.01 in
(1016 mb)
SW 6.9 mph
(SW 11 kph)
- 10SM
03:52
Mostly Cloudy
73°F / 23°C 66°F / 19°C 78% 30.01 in
(1016 mb)
SW 8.1 mph
(SW 13 kph)
- 10SM
02:52
Mostly Cloudy
73°F / 23°C 66°F / 19°C 78% 30.01 in
(1016 mb)
SSW 8.1 mph
(SSW 13 kph)
- 10SM
01:52
Partly Cloudy
73°F / 23°C 64°F / 18°C 74% 30.01 in
(1016 mb)
SSW 4.6 mph
(SSW 7 kph)
- 10SM
00:52
Mostly Cloudy
73°F / 23°C 64°F / 18°C 74% 30.04 in
(1017 mb)
SW 4.6 mph
(SW 7 kph)
- 10SM
Time Weather Temperature Dewpoint Humidity Pressure Winds Precip Visibility


Weather for websites

WeatherForYou.com, LLC is not responsible for any damages or problems caused by this service. Current weather conditions are obtained from the closest station including government and personal stations which may have varying degrees of accuracy. Weather forecasts are derived from the NOAA NDFD. Like all things, this site belongs to Jesus Christ... He just trusts us to maintain it. If you have any questions or comments email webmaster@weatherforyou.com

Copyright © 2015, WeatherForYou.com LLC. All rights reserved.